User: anonymous   Login
Location: Caltech
(34.1382°N, 118.1253°W)
Time: 10:27:29
(UTC-07:00)
Language:

Cosmos 1937 Rocket - Orbit

View from above orbital plane
View from above orbital plane
View from above satellite
View from above satellite

Ground track
Ground track

The orbit data is extracted from the following two-line orbital elements,

1 19039U 88029B   17117.87777627 +.00000062 +00000-0 +28882-4 0  9997
2 19039 074.0503 032.0707 0024526 219.5255 183.2783 14.38361123523330
Epoch (UTC): 27 April 2017 21:03:59
Eccentricity: 0.0024526
inclination: 74.0503°
perigee height: 746 km
apogee height: 781 km
right ascension of ascending node: 32.0707°
argument of perigee: 219.5255°
revolutions per day: 14.38361123
mean anomaly at epoch: 183.2783°
orbit number at epoch: 52333

The dashed part of the orbit path shows where the satellite is in the earth's shadow,  

DLR